Zurück zum Katalog

STARLINK-4117

AktivKommunikationVLEO
NORAD 53169·PAYLOAD·🇺🇸 United States

Gestartet Jul 17, 2022 von Cape Canaveral Space Force Station

Loading…

Nächste Überflüge (nächste 24 Stunden)

TLE

AktuellSource: CelesTrak SupGP

Epoche: Sep 14, 2026, 21:26 UTC

1 53169C 22083AP  26257.89354167 -.00017660  00000+0 -56783-3 0  2574
2 53169  53.1590   8.9221 0001102  80.8645  57.5051 15.31714426    14

Verfolge STARLINK-4117 in Echtzeit mit AllMySat

Download on the App Store